TimeMDT,TemperatureF,Dew PointF,Humidity,Sea Level PressureIn,VisibilityMPH,Wind Direction,Wind SpeedMPH,Gust SpeedMPH,PrecipitationIn,Events,Conditions,WindDirDegrees,DateUTC
12:53 AM,57.9,46.0,65,29.97,10.0,Calm,Calm,-,N/A,,Clear,0,2013-08-05 06:53:00
1:53 AM,55.9,46.9,72,29.96,10.0,South,6.9,-,N/A,,Clear,180,2013-08-05 07:53:00
2:53 AM,54.0,48.0,80,29.96,10.0,WNW,5.8,-,N/A,,Clear,290,2013-08-05 08:53:00
3:53 AM,51.1,46.9,86,29.96,10.0,SW,6.9,-,N/A,,Clear,230,2013-08-05 09:53:00
4:53 AM,50.0,48.0,93,29.95,10.0,SW,8.1,-,N/A,,Clear,230,2013-08-05 10:53:00
5:53 AM,50.0,48.0,93,29.95,10.0,SW,9.2,-,N/A,,Clear,230,2013-08-05 11:53:00
6:53 AM,51.1,50.0,96,29.95,10.0,SW,5.8,-,N/A,,Clear,230,2013-08-05 12:53:00
7:53 AM,55.9,52.0,87,29.96,10.0,SW,5.8,-,N/A,,Clear,230,2013-08-05 13:53:00
8:53 AM,61.0,52.0,72,29.96,10.0,WSW,6.9,-,N/A,,Clear,240,2013-08-05 14:53:00
9:53 AM,66.9,51.1,57,29.93,10.0,WSW,6.9,-,N/A,,Clear,240,2013-08-05 15:53:00
10:53 AM,73.0,46.9,39,29.93,10.0,SW,6.9,-,N/A,,Clear,230,2013-08-05 16:53:00
11:53 AM,73.9,46.0,37,29.92,10.0,WSW,5.8,-,N/A,,Clear,250,2013-08-05 17:53:00
12:53 PM,80.1,39.0,23,29.90,10.0,SW,9.2,-,N/A,,Clear,220,2013-08-05 18:53:00
1:53 PM,82.9,39.0,21,29.86,10.0,Variable,5.8,-,N/A,,Clear,0,2013-08-05 19:53:00
2:53 PM,84.9,39.0,20,29.83,10.0,Variable,4.6,-,N/A,,Clear,0,2013-08-05 20:53:00
3:53 PM,82.9,39.0,21,29.83,10.0,SW,9.2,-,N/A,,Scattered Clouds,220,2013-08-05 21:53:00
4:41 PM,75.2,50.0,41,29.93,10.0,North,20.7,25.3,N/A,,Mostly Cloudy,360,2013-08-05 22:41:00
4:53 PM,73.9,48.9,41,29.88,10.0,North,13.8,21.9,N/A,Thunderstorm,Thunderstorm,10,2013-08-05 22:53:00
5:32 PM,80.6,46.4,30,29.93,10.0,North,13.8,27.6,0.00,,Partly Cloudy,360,2013-08-05 23:32:00
5:39 PM,80.6,44.6,28,29.93,10.0,NNW,15.0,23.0,0.00,,Clear,340,2013-08-05 23:39:00
5:53 PM,81.0,44.1,27,29.87,10.0,North,15.0,23.0,0.00,,Clear,350,2013-08-05 23:53:00
7:08 PM,71.6,48.2,43,29.96,10.0,NE,13.8,-,N/A,,Mostly Cloudy,50,2013-08-06 01:08:00
7:53 PM,69.1,48.0,47,29.93,10.0,NNE,8.1,-,0.02,,Mostly Cloudy,20,2013-08-06 01:53:00
8:53 PM,66.0,48.0,52,29.96,10.0,North,6.9,-,0.00,Thunderstorm,Thunderstorm,350,2013-08-06 02:53:00
9:53 PM,62.1,53.1,72,29.96,10.0,NE,8.1,-,0.04,Thunderstorm,Thunderstorm,50,2013-08-06 03:53:00
10:16 PM,60.8,53.6,77,30.02,10.0,SE,6.9,-,N/A,,Mostly Cloudy,130,2013-08-06 04:16:00
10:53 PM,60.1,54.0,80,29.97,10.0,Calm,Calm,-,0.00,,Mostly Cloudy,0,2013-08-06 04:53:00
11:53 PM,57.9,55.0,90,29.97,10.0,Calm,Calm,-,0.00,,Scattered Clouds,0,2013-08-06 05:53:00